Grazzanise, Italy

1:27 PM CEST on April 25, 2017 (GMT +0200)
Grazzanise Mil

Weather History for LIRM - March, 2013

Change the Weather History Date:

Friday, March 29, 2013

  Actual Average (LIRN) Record (LIRN)
Temperature  
Mean Temperature 58 °F -  
Max Temperature 66 °F 65 °F 72 °F (2017)
Min Temperature 50 °F 45 °F 39 °F (1998)
Degree Days  
Heating Degree Days 7    
Growing Degree Days 8 (Base 50)    
Moisture  
Dew Point 53 °F    
Average Humidity 83    
Maximum Humidity 94    
Minimum Humidity 67    
Precipitation  
Precipitation 0.00 in 0.09 in - ()
Sea Level Pressure  
Sea Level Pressure 29.84 in    
Wind  
Wind Speed 3 mph ()    
Max Wind Speed 13 mph    
Max Gust Speed -    
Visibility 5.7 miles    
Events      
Averages and records for this station are not official NWS values.
T = Trace of Precipitation, MM = Missing Value Source: Averaged Metar Reports

Daily Weather History Graph

Daily Weather History Graph

Search for Another Location

Airport or City:

Trip Planner

Search our weather history database for the weather conditions in past years. The results will help you decide how hot, cold, wet, or windy it might be!

Date:

Astronomy

Mar. 29, 2013 Rise Set
Actual Time 5:52 AM CET 6:25 PM CET
Civil Twilight 5:24 AM CET 6:53 PM CET
Nautical Twilight 4:51 AM CET 7:25 PM CET
Astronomical Twilight 4:18 AM CET 7:59 PM CET
Moon 9:07 PM CET (3/29) 6:47 AM CET (3/29)
Length of Visible Light 13h 28m
Length of Day
12h 33m
Waning Gibbous, 95% of the Moon is Illuminated
Mar 29
Waning Gibbous
Apr 3
Last Quarter
Apr 10
New
Apr 18
First Quarter
Apr 25
Full

Hourly Weather History & Observations

Time (CET) Temp. Dew Point Humidity Pressure Visibility Wind Dir Wind Speed Gust Speed Precip Events Conditions
12:55 AM 51.8 °F 46.4 °F 82% 29.89 in 4.3 mi Calm Calm - N/A   Mostly Cloudy
1:00 AM 51 °F 47 °F 80% 29.90 in 4 mi Calm Calm - -   Overcast
1:55 AM 51.8 °F 46.4 °F 82% 29.89 in 4.3 mi Calm Calm - N/A   Mostly Cloudy
2:55 AM 51.8 °F 46.4 °F 82% 29.89 in 3.1 mi Calm Calm - N/A   Scattered Clouds
3:55 AM 51.8 °F 46.4 °F 82% 29.83 in 3.1 mi ESE 4.6 mph - N/A   Mostly Cloudy
4:00 AM 51 °F 47 °F 80% 29.86 in 3 mi ESE 4.6 mph - -   Mist
5:55 AM 50.0 °F 46.4 °F 87% 29.86 in 0.7 mi East 4.6 mph - N/A   Mostly Cloudy
6:55 AM 51.8 °F 46.4 °F 82% 29.86 in 0.7 mi NNE 4.6 mph - N/A   Mostly Cloudy
7:00 AM 51 °F 47 °F 80% 29.87 in 1 mi NNE 4.6 mph - -  
7:55 AM 55.4 °F 51.8 °F 88% 29.86 in 3.1 mi Calm Calm - N/A   Scattered Clouds
8:55 AM 60.8 °F 55.4 °F 82% 29.86 in 6.2 mi East 1.2 mph - N/A   Scattered Clouds
9:55 AM 64.4 °F 59.0 °F 83% 29.86 in 6.2 mi West 2.3 mph - N/A   Partly Cloudy
10:00 AM 64 °F 58 °F 75% 29.87 in 7 mi West 2.3 mph - -   Scattered Clouds
10:55 AM 64.4 °F 55.4 °F 73% 29.86 in 6.2 mi SW 5.8 mph - N/A   Scattered Clouds
11:55 AM 64.4 °F 57.2 °F 77% 29.86 in 6.2 mi South 11.5 mph - N/A   Scattered Clouds
12:55 PM 66.2 °F 57.2 °F 73% 29.86 in 6.2 mi SW 12.7 mph - N/A   Partly Cloudy
1:00 PM 66 °F 58 °F 67% 29.86 in 16 mi SW 12.7 mph - -  
1:55 PM 66.2 °F 57.2 °F 73% 29.83 in 6.2 mi WSW 9.2 mph - N/A   Partly Cloudy
2:55 PM 64.4 °F 59.0 °F 83% 29.83 in 6.2 mi SW 9.2 mph - N/A   Partly Cloudy
4:00 PM 63 °F 59 °F 82% 29.82 in 16 mi SSW 10.4 mph - -   Scattered Clouds
4:55 PM 62.6 °F 59.0 °F 88% 29.80 in 6.2 mi SW 9.2 mph - N/A   Partly Cloudy
5:55 PM 59.0 °F 57.2 °F 94% 29.80 in 6.2 mi WSW 5.8 mph - N/A   Partly Cloudy
6:55 PM 57.2 °F 55.4 °F 94% 29.80 in 6.2 mi SW 2.3 mph - N/A   Partly Cloudy
7:00 PM 57 °F 55 °F 92% 29.81 in 9 mi SW 2.3 mph - -  
7:55 PM 55.4 °F 53.6 °F 94% 29.80 in 6.2 mi South 2.3 mph - N/A   Partly Cloudy
8:55 PM 55.4 °F 51.8 °F 88% 29.80 in 6.2 mi NE 2.3 mph - N/A   Scattered Clouds
9:55 PM 55.4 °F 51.8 °F 88% 29.80 in 6.2 mi SSE 2.3 mph - N/A   Scattered Clouds
10:00 PM 55 °F 51 °F 81% 29.81 in 6 mi SSE 2.3 mph - -   Overcast
10:55 PM 53.6 °F 48.2 °F 82% 29.80 in 5.0 mi East 3.5 mph - N/A   Scattered Clouds
11:55 PM 53.6 °F 50.0 °F 88% 29.80 in 5.0 mi NE 3.5 mph - N/A   Scattered Clouds